[[{"header":{"parameterUnit":"m.s-1","parameterCategory":2,"la1":30.2991,"la2":30.254,"lo1":-89.0895,"lo2":-89.0444,"dy":0.0017,"dx":0.0017,"nx":28,"ny":28,"refTime":"2025-08-12T21:00:00:Z","depth":"0","parameterNumber":2,"parameterNumberName":"U-component_of_CURRENTS"},"data":[0,0,0,0,0,0,0,0,0,0,0,0,0,0,0,0,0,0,0,0,0,0,0,0,0,0,0,0,0,0,0,0,0,0,0,0,0,0,0,0,0,0,0,0,0,0,0,0,0,0,0,0,0,0,0,0,0,0,0.1542,0.1542,0,0.1558,0.1558,0.1558,0.1547,0.1546,0.1546,0.1546,0.1521,0.152,0.152,0,0,0,0,0,0,0,0,0,0,0,0,0,0.1494,0.1495,0.1542,0.1542,0.1543,0.1558,0.1558,0.1558,0.1547,0.1546,0.1546,0.1546,0.1521,0.152,0.152,0,0,0,0,0,0,0,0,0,0,0,0,0,0.1511,0.1495,0.1542,0.1541,0.1541,0.1558,0.1558,0.1558,0.1547,0.1546,0.1546,0.1546,0.1521,0.152,0.152,0.1524,0,0,0.1518,0.1518,0,0,0,0,0,0,0,0,0.151,0.1512,0.1541,0.1541,0.1541,0.1552,0.1532,0.1545,0.1547,0.1542,0.1546,0.1545,0.1529,0.1528,0.1529,0.1523,0.1522,0.1518,0.1517,0.1517,0.1517,0,0,0,0,0,0,0,0.1509,0.1511,0.1546,0.1541,0.1542,0.1537,0.1539,0.1534,0.1535,0.1543,0.1542,0.1548,0.1529,0.153,0.1528,0.1521,0.1518,0.1517,0.1517,0.1517,0.153,0.1531,0,0,0,0,0,0,0.1512,0.151,0.1545,0.1546,0.1527,0.1538,0.154,0.1547,0.1536,0.1535,0.1548,0.1547,0.1531,0.1529,0.1527,0.1546,0.1517,0.1517,0.1516,0.1529,0.153,0.1531,0,0,0,0,0,0,0.1511,0.1515,0.1545,0.153,0.1534,0.154,0.1547,0.1548,0.1551,0.1541,0.1539,0.1552,0.153,0.1528,0.1529,0.1544,0.1516,0.1516,0.1528,0.1529,0.153,0.1573,0,0,0,0,0,0,0.151,0.1515,0.152,0.1531,0.1535,0.1559,0.1548,0.1548,0.1556,0.1555,0.1544,0.1541,0.153,0.153,0.1529,0.1542,0.1515,0.1527,0.1529,0.153,0.1571,0.1576,0.158,0,0,0,0,0,0.1508,0.1517,0.1521,0.1525,0.1543,0.156,0.1562,0.1562,0.1557,0.1562,0.1556,0.1542,0.1538,0.153,0.1528,0.1542,0.1527,0.1528,0.153,0.1569,0.1575,0.158,0,0,0,0,0,0,0.1498,0.1518,0.1521,0.1535,0.155,0.1559,0.1565,0.1566,0.1566,0.1564,0.155,0.1547,0.1554,0.1543,0.1535,0.155,0.153,0.1532,0.1561,0.1566,0.1571,0.1577,0.1515,0,0,0,0,0,0.15,0.1512,0.153,0.1542,0.155,0.1559,0.1566,0.1569,0.1572,0.1571,0.1565,0.1559,0.156,0.1558,0.1554,0.1562,0.1571,0.157,0.1575,0.1578,0.1583,0.1606,0.1613,0.1536,0.1536,0.1536,0,0,0.1497,0.1512,0.1517,0.1541,0.155,0.1567,0.1561,0.1576,0.1588,0.1568,0.1577,0.1573,0.1565,0.1575,0.1577,0.1567,0.161,0.1581,0.1584,0.1586,0.1608,0.1616,0.1623,0.1537,0.1537,0.1537,0,0,0.1502,0.1515,0.1527,0.1542,0.1564,0.1573,0.158,0.1594,0.1598,0.1609,0.1601,0.1608,0.1603,0.1606,0.1606,0.1633,0.1632,0.163,0.1658,0.1681,0.1687,0.1693,0.1736,0.1746,0.1632,0.1633,0.1633,0,0.1498,0.1518,0.1532,0.1551,0.1566,0.1578,0.1595,0.1606,0.1617,0.1627,0.1616,0.1629,0.162,0.1642,0.1651,0.1643,0.1662,0.1639,0.1687,0.1693,0.1698,0.1741,0.175,0.1635,0.1635,0.1634,0.1634,0,0.1512,0.153,0.154,0.1568,0.1586,0.1604,0.1625,0.1641,0.1647,0.1657,0.1679,0.1674,0.1684,0.1683,0.1673,0.1709,0.1714,0.1691,0.1675,0.1709,0.1751,0.1761,0.1638,0.1637,0.1637,0.1636,0,0,0.15,0.1541,0.1545,0.1562,0.1598,0.1614,0.1643,0.1673,0.1698,0.1705,0.1735,0.1738,0.1741,0.1741,0.1736,0.1753,0.1811,0.174,0.174,0.1786,0.1882,0.195,0.1966,0.1796,0.1797,0.1798,0.1905,0,0.1507,0.1539,0.1561,0.1594,0.1614,0.1642,0.167,0.1699,0.1723,0.1755,0.1762,0.1784,0.1762,0.1774,0.1789,0.1803,0.1834,0.1785,0.184,0.1842,0.19,0.1979,0.1996,0.2098,0.1914,0.1916,0.1917,0,0.1515,0.1537,0.1567,0.1614,0.1626,0.1646,0.1701,0.1729,0.1779,0.1799,0.1827,0.1836,0.1872,0.184,0.1895,0.1867,0.1882,0.189,0.1894,0.1946,0.1927,0.203,0.2122,0.2097,0.1931,0.193,0.1929,0,0.15,0.1544,0.1566,0.1581,0.1633,0.1654,0.1685,0.1739,0.1772,0.1833,0.1866,0.1901,0.1933,0.1948,0.1981,0.1939,0.2049,0.1989,0.2069,0.2074,0.2096,0.2101,0.2171,0.2033,0.2033,0.2033,0.2033,0,0.1502,0.152,0.156,0.1572,0.1605,0.1648,0.1692,0.1734,0.1798,0.1849,0.1886,0.1943,0.196,0.2023,0.2024,0.2108,0.2091,0.2105,0.2115,0.2115,0.212,0.2102,0.2067,0.2037,0.2036,0.2035,0.2035,0,0.1481,0.1508,0.1534,0.1581,0.1597,0.1621,0.1688,0.1724,0.1795,0.1868,0.1892,0.1991,0.2095,0.2135,0.2192,0.2188,0.2207,0.2267,0.2286,0.2297,0.2325,0.2291,0.2254,0.2172,0.2364,0.2367,0.2369,0,0.1474,0.1484,0.1526,0.1541,0.1561,0.1602,0.1632,0.1707,0.1756,0.1902,0.1939,0.2078,0.219,0.2336,0.2375,0.2444,0.2324,0.2472,0.2386,0.2367,0.2336,0.2181,0.2099,0.2436,0.2438,0.244,0.2442,0,0.1455,0.1465,0.1485,0.1515,0.1543,0.1579,0.1635,0.1674,0.178,0.1872,0.2024,0.2136,0.2326,0.2441,0.2554,0.2574,0.2394,0.2515,0.2481,0.2406,0.2255,0.2167,0.2332,0.2459,0.2458,0.2456,0.2455,0.2455,0.1432,0.1436,0.1459,0.1489,0.152,0.156,0.1581,0.1663,0.1759,0.1893,0.2033,0.2199,0.2433,0.2618,0.2621,0.2673,0.2534,0.2619,0.2586,0.2434,0.2336,0.2565,0.2708,0.2707,0.2707,0.2707,0.2707,0,0.1399,0.1411,0.1436,0.1467,0.1487,0.152,0.1583,0.1606,0.1708,0.1874,0.2018,0.2305,0.2506,0.2647,0.2816,0.2758,0.2561,0.2694,0.247,0.2383,0.2609,0.2597,0.2741,0.2741,0.2741,0.2741,0.2741,0.2741,0.1379,0.1384,0.1401,0.1425,0.145,0.1462,0.1488,0.1543,0.1646,0.1831,0.1995,0.2149,0.2508,0.2835,0.2902,0.2826,0.2563,0.2514,0.2392,0.2583,0.2571,0.256,0.254,0.267,0.267,0.2085,0.2081,0.2079]},{"header":{"parameterUnit":"m.s-1","parameterCategory":2,"la1":30.2991,"la2":30.254,"lo1":-89.0895,"lo2":-89.0444,"dy":0.0017,"dx":0.0017,"nx":28,"ny":28,"refTime":"2025-08-12T21:00:00:Z","depth":"0","parameterNumber":3,"parameterNumberName":"V-component_of_CURRENTS"},"data":[0,0,0,0,0,0,0,0,0,0,0,0,0,0,0,0,0,0,0,0,0,0,0,0,0,0,0,0,0,0,0,0,0,0,0,0,0,0,0,0,0,0,0,0,0,0,0,0,0,0,0,0,0,0,0,0,0,0,-0.0323,-0.0323,0,-0.0355,-0.0355,-0.0355,-0.0368,-0.0368,-0.0368,-0.0368,-0.0402,-0.0403,-0.0404,0,0,0,0,0,0,0,0,0,0,0,0,0,-0.0286,-0.0286,-0.0323,-0.0323,-0.0324,-0.0355,-0.0355,-0.0355,-0.0368,-0.0368,-0.0368,-0.0368,-0.0402,-0.0403,-0.0404,0,0,0,0,0,0,0,0,0,0,0,0,0,-0.0308,-0.0286,-0.0323,-0.0334,-0.0335,-0.0355,-0.0355,-0.0356,-0.0368,-0.0368,-0.0368,-0.0368,-0.0401,-0.0403,-0.0404,-0.0414,0,0,-0.0408,-0.0409,0,0,0,0,0,0,0,0,-0.0306,-0.0309,-0.0332,-0.0333,-0.0335,-0.0358,-0.0354,-0.0375,-0.0368,-0.0356,-0.0368,-0.0368,-0.0388,-0.039,-0.0396,-0.0415,-0.0417,-0.0408,-0.0409,-0.041,-0.041,0,0,0,0,0,0,0,-0.0305,-0.0308,-0.0335,-0.0332,-0.0334,-0.0342,-0.0345,-0.0358,-0.0371,-0.0357,-0.0358,-0.0362,-0.0388,-0.0394,-0.0397,-0.0417,-0.0408,-0.041,-0.041,-0.0411,-0.0448,-0.0448,0,0,0,0,0,0,-0.0301,-0.0306,-0.0334,-0.0336,-0.0321,-0.0343,-0.0346,-0.035,-0.0371,-0.0374,-0.0362,-0.0362,-0.0392,-0.0395,-0.0398,-0.0407,-0.041,-0.0411,-0.0412,-0.0448,-0.0448,-0.0448,0,0,0,0,0,0,-0.03,-0.0303,-0.0333,-0.0322,-0.0326,-0.0343,-0.0348,-0.0351,-0.0357,-0.0375,-0.0378,-0.0365,-0.0392,-0.0396,-0.0408,-0.0409,-0.0412,-0.0413,-0.0448,-0.0448,-0.0448,-0.0428,0,0,0,0,0,0,-0.0299,-0.0303,-0.0304,-0.0322,-0.0327,-0.034,-0.0348,-0.0352,-0.0359,-0.036,-0.0379,-0.0382,-0.0392,-0.0406,-0.0409,-0.0411,-0.0414,-0.0447,-0.0448,-0.0448,-0.0429,-0.0428,-0.0427,0,0,0,0,0,-0.0298,-0.0295,-0.0304,-0.0308,-0.0329,-0.0339,-0.0342,-0.0354,-0.0359,-0.0359,-0.0373,-0.0381,-0.041,-0.0407,-0.0411,-0.0413,-0.0447,-0.0448,-0.0448,-0.0429,-0.0428,-0.0427,0,0,0,0,0,0,-0.0278,-0.0297,-0.0307,-0.0311,-0.0324,-0.0342,-0.0342,-0.0353,-0.0365,-0.0364,-0.0383,-0.0387,-0.0398,-0.0409,-0.0405,-0.0425,-0.043,-0.0431,-0.0415,-0.0414,-0.0413,-0.0402,-0.0415,0,0,0,0,0,-0.0276,-0.028,-0.03,-0.0303,-0.0308,-0.0326,-0.0332,-0.0341,-0.0354,-0.0359,-0.0373,-0.0388,-0.0404,-0.041,-0.0424,-0.0434,-0.0449,-0.0439,-0.0438,-0.0437,-0.0432,-0.0464,-0.0466,-0.0449,-0.0449,-0.0449,0,0,-0.027,-0.028,-0.0283,-0.0299,-0.0309,-0.031,-0.0329,-0.0335,-0.0336,-0.0361,-0.0365,-0.0385,-0.0406,-0.0417,-0.0423,-0.0425,-0.0448,-0.0437,-0.0436,-0.0432,-0.0465,-0.0466,-0.0468,-0.0449,-0.0449,-0.0449,0,0,-0.025,-0.0267,-0.0261,-0.027,-0.0284,-0.0297,-0.0297,-0.0315,-0.0324,-0.0334,-0.0354,-0.0375,-0.0393,-0.0411,-0.0422,-0.0425,-0.0443,-0.043,-0.0417,-0.0448,-0.045,-0.0451,-0.0463,-0.0466,-0.0429,-0.0429,-0.0429,0,-0.0239,-0.0237,-0.026,-0.0255,-0.0258,-0.0288,-0.0279,-0.0294,-0.0314,-0.0322,-0.033,-0.0371,-0.039,-0.0411,-0.0412,-0.0423,-0.0437,-0.0418,-0.0447,-0.0449,-0.0451,-0.0463,-0.0466,-0.0428,-0.0428,-0.0428,-0.0428,0,-0.0214,-0.0213,-0.0209,-0.0214,-0.0221,-0.0219,-0.0242,-0.0253,-0.0271,-0.0289,-0.0315,-0.0347,-0.0372,-0.0384,-0.0398,-0.0422,-0.0426,-0.0443,-0.0448,-0.0451,-0.0464,-0.0468,-0.0427,-0.0427,-0.0427,-0.0428,0,0,-0.0182,-0.0189,-0.0186,-0.0181,-0.0199,-0.02,-0.0208,-0.0224,-0.0231,-0.0262,-0.0273,-0.0313,-0.034,-0.0354,-0.0383,-0.0411,-0.0438,-0.0429,-0.0431,-0.0437,-0.0494,-0.048,-0.0483,-0.0462,-0.0462,-0.0463,-0.0495,0,-0.0153,-0.0131,-0.0146,-0.0128,-0.0119,-0.015,-0.0153,-0.0176,-0.0204,-0.0224,-0.0272,-0.0293,-0.0326,-0.0339,-0.0375,-0.0422,-0.0448,-0.0426,-0.0493,-0.0495,-0.048,-0.0488,-0.0463,-0.0488,-0.0498,-0.0499,-0.05,0,-0.0121,-0.0111,-0.0086,-0.0084,-0.0083,-0.008,-0.0097,-0.0106,-0.015,-0.017,-0.0211,-0.0251,-0.0297,-0.0325,-0.0408,-0.0393,-0.0439,-0.0477,-0.0479,-0.0475,-0.0488,-0.0489,-0.0495,-0.0626,-0.0506,-0.0505,-0.0505,0,-0.0084,-0.0069,-0.0047,-0.0046,-0.0051,-0.0048,-0.0054,-0.0089,-0.0092,-0.0139,-0.0142,-0.0217,-0.0235,-0.0319,-0.0394,-0.0406,-0.0477,-0.0506,-0.0536,-0.0535,-0.0531,-0.0528,-0.0668,-0.0565,-0.0564,-0.0564,-0.0564,0,-0.0048,-0.0031,-0.0027,-0.0015,0.0012,-0.001,0.0002,-0.0018,-0.0042,-0.0028,-0.011,-0.0103,-0.0234,-0.0291,-0.0379,-0.0458,-0.0467,-0.0531,-0.0546,-0.0522,-0.0518,-0.0645,-0.0736,-0.0566,-0.0565,-0.0565,-0.0565,0,-0.0014,-0.0012,0.0016,0.0024,0.003,0.0047,0.0053,0.0061,0.0033,0.0049,0.0043,-0.0018,-0.0079,-0.0205,-0.0325,-0.0416,-0.0585,-0.0534,-0.0485,-0.0493,-0.0654,-0.0744,-0.0903,-0.0969,-0.0585,-0.0584,-0.0584,0,0.0004,0.0024,0.0051,0.0076,0.0082,0.0103,0.0122,0.0102,0.0121,0.0121,0.0147,0.0089,0.0094,-0.0081,-0.0264,-0.042,-0.0562,-0.0516,-0.0543,-0.0659,-0.0771,-0.0841,-0.089,-0.0529,-0.0528,-0.0528,-0.0527,0,0.0044,0.0053,0.0079,0.0131,0.0162,0.0199,0.023,0.0265,0.0262,0.0303,0.0364,0.0369,0.0197,0.0063,-0.0177,-0.0306,-0.0624,-0.0511,-0.0656,-0.0759,-0.0822,-0.0891,-0.0503,-0.0523,-0.0524,-0.0524,-0.0524,-0.0524,0.0075,0.0105,0.0144,0.0197,0.0239,0.0311,0.0373,0.043,0.0513,0.0615,0.0573,0.0649,0.0375,0.0064,-0.0166,-0.0561,-0.059,-0.0668,-0.0771,-0.0832,-0.0896,-0.0486,-0.051,-0.051,-0.051,-0.051,-0.0511,0,0.0123,0.0159,0.021,0.0284,0.0354,0.036,0.0461,0.055,0.0706,0.0807,0.089,0.0838,0.0497,0.0105,-0.0431,-0.0742,-0.0889,-0.093,-0.1041,-0.1082,-0.073,-0.0727,-0.0768,-0.0768,-0.0768,-0.0768,-0.0768,-0.0768,0.015,0.0216,0.0246,0.0378,0.0437,0.0559,0.064,0.0786,0.09,0.11,0.1187,0.1205,0.0935,-0.0112,-0.0822,-0.1015,-0.1277,-0.1338,-0.1468,-0.1243,-0.1226,-0.1211,-0.1229,-0.1375,-0.1376,-0.1761,-0.1765,-0.1768]}],[{"header":{"parameterUnit":"m.s-1","parameterCategory":2,"la1":30.2991,"la2":30.254,"lo1":-89.0895,"lo2":-89.0444,"dy":0.0017,"dx":0.0017,"nx":28,"ny":28,"refTime":"2025-08-12T21:00:00:Z","depth":"2","parameterNumber":2,"parameterNumberName":"U-component_of_CURRENTS"},"data":[0,0,0,0,0,0,0,0,0,0,0,0,0,0,0,0,0,0,0,0,0,0,0,0,0,0,0,0,0,0,0,0,0,0,0,0,0,0,0,0,0,0,0,0,0,0,0,0,0,0,0,0,0,0,0,0,0,0,0.1448,0.1449,0,0.146,0.146,0.146,0.1449,0.1449,0.1448,0.1448,0.1431,0.143,0.143,0,0,0,0,0,0,0,0,0,0,0,0,0,0.1398,0.1399,0.1448,0.1449,0.1449,0.146,0.146,0.146,0.1449,0.1449,0.1448,0.1448,0.1431,0.1431,0.143,0,0,0,0,0,0,0,0,0,0,0,0,0,0.1413,0.1399,0.1448,0.1447,0.1448,0.146,0.146,0.146,0.1449,0.1449,0.1448,0.1448,0.1431,0.1431,0.143,0.1432,0,0,0.1429,0.1428,0,0,0,0,0,0,0,0,0.1412,0.1414,0.1447,0.1447,0.1448,0.1456,0.1436,0.145,0.1449,0.1445,0.1448,0.1448,0.1439,0.1438,0.1436,0.1431,0.143,0.1429,0.1428,0.1428,0.1428,0,0,0,0,0,0,0,0.1411,0.1413,0.145,0.1448,0.1448,0.144,0.1442,0.1438,0.144,0.1445,0.1445,0.1452,0.1438,0.1437,0.1436,0.143,0.1429,0.1428,0.1428,0.1428,0.1446,0.1447,0,0,0,0,0,0,0.1417,0.1413,0.1449,0.145,0.1433,0.1442,0.1443,0.1451,0.1441,0.144,0.1452,0.1451,0.1438,0.1436,0.1435,0.1459,0.1428,0.1428,0.1427,0.1445,0.1446,0.1447,0,0,0,0,0,0,0.1416,0.142,0.1449,0.1434,0.1438,0.1443,0.1451,0.1451,0.1455,0.1447,0.1445,0.1457,0.1437,0.1436,0.144,0.1457,0.1427,0.1427,0.1444,0.1446,0.1447,0.1492,0,0,0,0,0,0,0.1415,0.142,0.1426,0.1435,0.1439,0.1461,0.1452,0.1452,0.1461,0.146,0.1451,0.1448,0.1437,0.144,0.1439,0.1456,0.1427,0.1443,0.1445,0.1446,0.149,0.1495,0.1499,0,0,0,0,0,0.1413,0.1421,0.1426,0.1431,0.1448,0.1462,0.1463,0.1464,0.1462,0.1466,0.1462,0.1449,0.1449,0.1441,0.1439,0.1456,0.1443,0.1445,0.1446,0.1487,0.1494,0.1499,0,0,0,0,0,0,0.14,0.1422,0.1427,0.1441,0.1455,0.1462,0.1468,0.147,0.147,0.147,0.1457,0.1455,0.1465,0.1455,0.1446,0.1466,0.1445,0.1446,0.1477,0.1482,0.1487,0.1495,0.1426,0,0,0,0,0,0.1402,0.1416,0.1434,0.1446,0.1455,0.1464,0.147,0.1473,0.1477,0.1477,0.1472,0.1468,0.1471,0.1472,0.1468,0.1479,0.1487,0.1489,0.1494,0.1498,0.1504,0.1529,0.1537,0.1453,0.1453,0.1453,0,0,0.14,0.1415,0.1422,0.1445,0.1455,0.147,0.1466,0.1481,0.1493,0.1475,0.1486,0.1483,0.1477,0.1489,0.1493,0.1483,0.1529,0.15,0.1504,0.1508,0.1532,0.154,0.1547,0.1454,0.1454,0.1454,0,0,0.1403,0.1418,0.1431,0.1446,0.1469,0.1478,0.1486,0.15,0.1506,0.1518,0.1511,0.1522,0.1519,0.1523,0.1524,0.1553,0.1552,0.1552,0.1584,0.1608,0.1615,0.1622,0.1658,0.1668,0.1555,0.1555,0.1556,0,0.1398,0.1419,0.1436,0.1454,0.1469,0.1484,0.1501,0.1512,0.1524,0.1536,0.1527,0.1545,0.1537,0.1563,0.1573,0.1565,0.1582,0.1563,0.1615,0.1621,0.1627,0.1663,0.1673,0.1558,0.1558,0.1557,0.1557,0,0.1412,0.143,0.1441,0.147,0.1487,0.1505,0.1529,0.1546,0.1557,0.1568,0.1596,0.1593,0.1606,0.1607,0.1598,0.1638,0.1639,0.1618,0.1602,0.1639,0.1674,0.1683,0.1561,0.156,0.156,0.1559,0,0,0.1398,0.1441,0.1445,0.1462,0.1499,0.1514,0.1546,0.1579,0.1607,0.1619,0.1654,0.1662,0.1668,0.167,0.1667,0.1686,0.1744,0.1673,0.1673,0.1712,0.1814,0.1835,0.1847,0.1733,0.1734,0.1736,0.1828,0,0.1404,0.1435,0.1458,0.1491,0.151,0.1542,0.157,0.1604,0.1632,0.1669,0.1684,0.1712,0.1691,0.1706,0.1724,0.1739,0.1768,0.1722,0.177,0.1772,0.1788,0.1858,0.1727,0.18,0.1837,0.1839,0.184,0,0.1409,0.1432,0.1461,0.1509,0.1522,0.1543,0.1602,0.1632,0.169,0.1714,0.1751,0.1765,0.1808,0.1777,0.1834,0.1807,0.1818,0.1825,0.1828,0.1837,0.181,0.1766,0.1816,0.1855,0.1854,0.1853,0.1852,0,0.1391,0.1436,0.146,0.1475,0.1528,0.1552,0.1585,0.1644,0.168,0.1749,0.1787,0.1831,0.1868,0.1884,0.1909,0.1876,0.1973,0.1925,0.1957,0.1959,0.1852,0.1843,0.1967,0.1967,0.1967,0.1966,0.1966,0,0.139,0.1408,0.1453,0.1465,0.1502,0.1545,0.1593,0.1638,0.1708,0.1763,0.1809,0.1866,0.1897,0.1954,0.195,0.2005,0.2011,0.1988,0.1991,0.1867,0.1858,0.1896,0.1887,0.197,0.1969,0.1968,0.1968,0,0.1366,0.1395,0.1422,0.1474,0.1492,0.1519,0.159,0.1629,0.1704,0.1781,0.1809,0.1913,0.1998,0.2034,0.2085,0.2074,0.2105,0.2117,0.1984,0.1971,0.2062,0.2054,0.2163,0.2164,0.2166,0.2167,0.2168,0,0.1357,0.1368,0.1416,0.1433,0.1456,0.15,0.1534,0.1613,0.1663,0.1809,0.1848,0.1971,0.2048,0.2156,0.2171,0.2205,0.218,0.2091,0.1999,0.2094,0.2086,0.2075,0.2065,0.1877,0.1876,0.1874,0.1873,0,0.1335,0.135,0.1373,0.1407,0.1439,0.1476,0.1535,0.1571,0.1679,0.1752,0.1877,0.1956,0.2101,0.2104,0.2172,0.2156,0.2074,0.2071,0.2209,0.1855,0.1834,0.1823,0.1821,0.1863,0.1864,0.1865,0.1865,0.1866,0.1314,0.1321,0.135,0.1381,0.1416,0.145,0.1466,0.1533,0.1604,0.1707,0.183,0.1907,0.1985,0.2035,0.2,0.1978,0.2098,0.1987,0.1986,0.1988,0.1946,0.1929,0.1969,0.197,0.1972,0.1973,0.1974,0,0.1282,0.1298,0.1325,0.1358,0.1375,0.1412,0.1466,0.1466,0.1518,0.1636,0.1727,0.1676,0.1729,0.1783,0.1759,0.1789,0.1713,0.1699,0.1577,0.1594,0.1607,0.1538,0.1456,0.1454,0.1452,0.1449,0,0,0.1265,0.127,0.1286,0.1304,0.1332,0.1336,0.1353,0.1357,0.1412,0.1441,0.1487,0.1658,0.1763,0.1577,0.1584,0.1512,0.1519,0.1457,0.1888,0.1763,0.1772,0.1812,0.1733,0,0,0,0,0]},{"header":{"parameterUnit":"m.s-1","parameterCategory":2,"la1":30.2991,"la2":30.254,"lo1":-89.0895,"lo2":-89.0444,"dy":0.0017,"dx":0.0017,"nx":28,"ny":28,"refTime":"2025-08-12T21:00:00:Z","depth":"2","parameterNumber":3,"parameterNumberName":"V-component_of_CURRENTS"},"data":[0,0,0,0,0,0,0,0,0,0,0,0,0,0,0,0,0,0,0,0,0,0,0,0,0,0,0,0,0,0,0,0,0,0,0,0,0,0,0,0,0,0,0,0,0,0,0,0,0,0,0,0,0,0,0,0,0,0,-0.0141,-0.0142,0,-0.017,-0.0171,-0.0171,-0.019,-0.019,-0.019,-0.019,-0.0238,-0.0239,-0.024,0,0,0,0,0,0,0,0,0,0,0,0,0,-0.0116,-0.0116,-0.0141,-0.0142,-0.0142,-0.017,-0.0171,-0.0171,-0.019,-0.019,-0.019,-0.0191,-0.0237,-0.0239,-0.024,0,0,0,0,0,0,0,0,0,0,0,0,0,-0.0133,-0.0116,-0.0141,-0.0156,-0.0157,-0.017,-0.0171,-0.0171,-0.019,-0.019,-0.019,-0.0191,-0.0237,-0.0238,-0.024,-0.0244,0,0,-0.0245,-0.0246,0,0,0,0,0,0,0,0,-0.0132,-0.0134,-0.0153,-0.0155,-0.0156,-0.0178,-0.0179,-0.0197,-0.019,-0.0177,-0.019,-0.0191,-0.022,-0.0223,-0.0226,-0.0247,-0.0249,-0.0245,-0.0246,-0.0247,-0.0247,0,0,0,0,0,0,0,-0.0131,-0.0133,-0.0152,-0.0153,-0.0156,-0.0165,-0.0168,-0.0182,-0.0196,-0.0178,-0.0179,-0.0184,-0.0221,-0.0224,-0.0227,-0.0249,-0.0245,-0.0247,-0.0248,-0.0248,-0.0286,-0.0286,0,0,0,0,0,0,-0.0128,-0.0132,-0.0151,-0.0153,-0.0146,-0.0165,-0.0168,-0.017,-0.0195,-0.02,-0.0183,-0.0185,-0.0222,-0.0225,-0.0229,-0.0242,-0.0247,-0.0248,-0.0249,-0.0286,-0.0286,-0.0286,0,0,0,0,0,0,-0.0127,-0.0129,-0.015,-0.0144,-0.0147,-0.0166,-0.0167,-0.017,-0.0178,-0.02,-0.0204,-0.0188,-0.0222,-0.0227,-0.0242,-0.0244,-0.0249,-0.0251,-0.0286,-0.0286,-0.0286,-0.0263,0,0,0,0,0,0,-0.0126,-0.0129,-0.0129,-0.0143,-0.0148,-0.0154,-0.0167,-0.0171,-0.018,-0.0182,-0.0205,-0.0209,-0.0223,-0.0239,-0.0243,-0.0246,-0.0252,-0.0286,-0.0286,-0.0286,-0.0264,-0.0263,-0.0261,0,0,0,0,0,-0.0125,-0.0119,-0.0129,-0.0131,-0.0147,-0.0154,-0.0156,-0.017,-0.018,-0.0179,-0.0197,-0.0209,-0.0243,-0.024,-0.0245,-0.0248,-0.0286,-0.0286,-0.0286,-0.0265,-0.0263,-0.0261,0,0,0,0,0,0,-0.0106,-0.0121,-0.0132,-0.013,-0.0142,-0.0157,-0.0158,-0.017,-0.0183,-0.0187,-0.0209,-0.0214,-0.0228,-0.0241,-0.0238,-0.026,-0.0267,-0.0268,-0.0249,-0.0247,-0.0246,-0.0238,-0.0253,0,0,0,0,0,-0.0103,-0.0104,-0.012,-0.012,-0.0125,-0.0143,-0.0149,-0.0158,-0.0172,-0.0179,-0.0196,-0.0215,-0.0232,-0.0241,-0.0256,-0.0267,-0.0282,-0.0273,-0.0272,-0.027,-0.0267,-0.0299,-0.03,-0.0286,-0.0286,-0.0286,0,0,-0.0097,-0.0105,-0.0106,-0.0117,-0.0127,-0.0126,-0.0147,-0.0152,-0.0153,-0.0182,-0.0189,-0.0211,-0.0233,-0.0245,-0.0253,-0.0257,-0.0279,-0.027,-0.0269,-0.0267,-0.0299,-0.0301,-0.0302,-0.0286,-0.0286,-0.0286,0,0,-0.0077,-0.0091,-0.0083,-0.009,-0.0104,-0.0115,-0.0116,-0.0133,-0.0143,-0.0154,-0.0176,-0.0198,-0.022,-0.0238,-0.0249,-0.025,-0.027,-0.0256,-0.0245,-0.0275,-0.0277,-0.0278,-0.0285,-0.0288,-0.0256,-0.0256,-0.0256,0,-0.0069,-0.0063,-0.0082,-0.0075,-0.0077,-0.0107,-0.0097,-0.0111,-0.0132,-0.014,-0.0152,-0.0195,-0.0216,-0.0235,-0.0237,-0.0247,-0.0261,-0.0248,-0.0274,-0.0276,-0.0277,-0.0284,-0.0287,-0.0255,-0.0255,-0.0256,-0.0256,0,-0.0043,-0.004,-0.0035,-0.0038,-0.0042,-0.004,-0.006,-0.007,-0.009,-0.0108,-0.0135,-0.0169,-0.0195,-0.0207,-0.0223,-0.0247,-0.025,-0.0268,-0.0277,-0.0277,-0.0284,-0.0288,-0.0254,-0.0254,-0.0254,-0.0255,0,0,-0.0019,-0.0017,-0.0015,-0.0007,-0.0022,-0.0019,-0.0026,-0.0039,-0.0043,-0.0079,-0.009,-0.0131,-0.0161,-0.0176,-0.0206,-0.0235,-0.0259,-0.0256,-0.0258,-0.026,-0.0312,-0.0308,-0.0311,-0.0285,-0.0286,-0.0287,-0.0306,0,0.0007,0.0034,0.0024,0.0045,0.0056,0.003,0.003,0.0011,-0.0015,-0.0035,-0.0087,-0.0109,-0.0146,-0.0161,-0.0199,-0.0244,-0.0269,-0.025,-0.0313,-0.0314,-0.0309,-0.0316,-0.0301,-0.0317,-0.031,-0.031,-0.0311,0,0.0036,0.0051,0.0079,0.009,0.0093,0.0096,0.0089,0.0083,0.0042,0.0022,-0.0023,-0.0064,-0.0114,-0.0146,-0.0227,-0.0216,-0.026,-0.0296,-0.0298,-0.0306,-0.0317,-0.0319,-0.0324,-0.0317,-0.0316,-0.0316,-0.0315,0,0.0068,0.009,0.0115,0.0118,0.0123,0.0127,0.0124,0.0097,0.01,0.0051,0.0049,-0.0029,-0.0053,-0.0135,-0.0211,-0.0224,-0.0292,-0.0321,-0.0356,-0.0355,-0.0359,-0.0358,-0.0376,-0.0376,-0.0376,-0.0376,-0.0376,0,0.0101,0.0121,0.0131,0.0145,0.0175,0.0161,0.0178,0.0162,0.0145,0.0161,0.0078,0.0084,-0.0053,-0.0108,-0.0194,-0.0276,-0.028,-0.0351,-0.0365,-0.0349,-0.0347,-0.0363,-0.0362,-0.0377,-0.0377,-0.0377,-0.0376,0,0.0129,0.0135,0.0168,0.0183,0.019,0.0209,0.0224,0.0239,0.0215,0.0233,0.0224,0.0165,0.0097,-0.0027,-0.0145,-0.0234,-0.0325,-0.0349,-0.0309,-0.0318,-0.0372,-0.0368,-0.0404,-0.0404,-0.0404,-0.0404,-0.0404,0,0.0145,0.0165,0.0199,0.0225,0.0232,0.0257,0.028,0.0271,0.0299,0.0302,0.0329,0.0265,0.0252,0.0078,-0.0103,-0.0258,-0.0286,-0.0348,-0.0382,-0.0367,-0.0377,-0.0374,-0.037,-0.0373,-0.0372,-0.0372,-0.0372,0,0.018,0.0189,0.0217,0.0271,0.0304,0.0349,0.0386,0.0427,0.0434,0.0464,0.0517,0.0506,0.0331,0.0176,-0.0059,-0.0173,-0.0332,-0.0349,-0.0352,-0.0366,-0.0339,-0.0348,-0.0346,-0.0371,-0.0371,-0.0371,-0.0371,-0.0371,0.0203,0.0233,0.0272,0.0326,0.0372,0.045,0.051,0.0566,0.0641,0.0707,0.0678,0.0674,0.0453,0.0172,-0.0047,-0.0295,-0.0293,-0.0383,-0.0383,-0.0383,-0.0374,-0.0349,-0.0379,-0.0379,-0.038,-0.038,-0.038,0,0.0242,0.0277,0.0329,0.0403,0.0473,0.0487,0.0593,0.0662,0.0783,0.0829,0.0871,0.0694,0.0496,0.0243,-0.0117,-0.0332,-0.0364,-0.0403,-0.0396,-0.0396,-0.0396,-0.0388,-0.0397,-0.0398,-0.0398,-0.0399,0,0,0.0263,0.0324,0.0356,0.0481,0.054,0.0656,0.0734,0.0833,0.0898,0.0972,0.097,0.0911,0.0595,0.0339,0.003,-0.0179,-0.0237,-0.0225,-0.0189,-0.0145,-0.0142,-0.0364,-0.035,0,0,0,0,0]}],[{"header":{"parameterUnit":"m.s-1","parameterCategory":2,"la1":30.2991,"la2":30.254,"lo1":-89.0895,"lo2":-89.0444,"dy":0.0017,"dx":0.0017,"nx":28,"ny":28,"refTime":"2025-08-12T21:00:00:Z","depth":"4","parameterNumber":2,"parameterNumberName":"U-component_of_CURRENTS"},"data":[0,0,0,0,0,0,0,0,0,0,0,0,0,0,0,0,0,0,0,0,0,0,0,0,0,0,0,0,0,0,0,0,0,0,0,0,0,0,0,0,0,0,0,0,0,0,0,0,0,0,0,0,0,0,0,0,0,0,0.0828,0.0828,0,0.0898,0.0899,0.09,0.0955,0.0956,0.0956,0.0957,0.1031,0.1032,0.1034,0,0,0,0,0,0,0,0,0,0,0,0,0,0.0755,0.0756,0.0828,0.0828,0.0829,0.0898,0.0899,0.09,0.0955,0.0956,0.0956,0.0957,0.1031,0.1032,0.1034,0,0,0,0,0,0,0,0,0,0,0,0,0,0.0802,0.0756,0.0827,0.0866,0.087,0.0898,0.0899,0.09,0.0955,0.0956,0.0957,0.0957,0.103,0.1032,0.1034,0.1029,0,0,0.1041,0.1042,0,0,0,0,0,0,0,0,0.0799,0.0804,0.0859,0.0863,0.0868,0.0919,0.0901,0.0944,0.0955,0.0922,0.0957,0.0958,0.0994,0.0999,0.1009,0.1033,0.1036,0.1041,0.1042,0.1043,0.1044,0,0,0,0,0,0,0,0.0796,0.0802,0.0855,0.086,0.0865,0.0884,0.0892,0.0909,0.0951,0.0925,0.0929,0.0938,0.0996,0.1007,0.1011,0.1037,0.1041,0.1043,0.1044,0.1045,0.1128,0.1129,0,0,0,0,0,0,0.0786,0.0798,0.0853,0.0857,0.0836,0.0885,0.0893,0.0901,0.0951,0.096,0.0937,0.094,0.1003,0.1009,0.1014,0.1074,0.1043,0.1045,0.1046,0.1127,0.1128,0.1129,0,0,0,0,0,0,0.0785,0.079,0.085,0.083,0.0839,0.0885,0.0894,0.0902,0.0936,0.0961,0.0969,0.0964,0.1004,0.1011,0.1053,0.1075,0.1046,0.1048,0.1126,0.1128,0.1129,0.1154,0,0,0,0,0,0,0.0782,0.0789,0.08,0.0829,0.084,0.0882,0.0893,0.0903,0.0938,0.0944,0.0986,0.0993,0.1005,0.105,0.1055,0.1078,0.105,0.1125,0.1127,0.1128,0.1152,0.1156,0.116,0,0,0,0,0,0.0779,0.079,0.08,0.0808,0.0851,0.0882,0.089,0.0925,0.0939,0.0958,0.0989,0.0993,0.1065,0.1053,0.1059,0.1082,0.1124,0.1126,0.1128,0.115,0.1155,0.116,0,0,0,0,0,0,0.0766,0.0797,0.081,0.083,0.086,0.0892,0.0915,0.0934,0.0973,0.0985,0.1005,0.1015,0.1059,0.1066,0.1052,0.1111,0.1095,0.1098,0.1109,0.1114,0.1118,0.1116,0.1051,0,0,0,0,0,0.0766,0.0784,0.0815,0.0834,0.085,0.0884,0.0905,0.0929,0.0962,0.0981,0.101,0.104,0.1067,0.1088,0.1111,0.1143,0.1151,0.1162,0.1166,0.1169,0.1171,0.1194,0.12,0.1136,0.1136,0.1136,0,0,0.0766,0.0787,0.0797,0.0833,0.086,0.0887,0.09,0.0938,0.0965,0.0981,0.1033,0.1056,0.1079,0.1118,0.1138,0.1131,0.1195,0.1172,0.1174,0.1175,0.1197,0.1203,0.1209,0.1138,0.1137,0.1137,0,0,0.0774,0.0795,0.0814,0.0839,0.0882,0.0902,0.0916,0.0959,0.0987,0.1032,0.1051,0.1087,0.1132,0.1152,0.1166,0.1203,0.1212,0.1215,0.1236,0.1259,0.1264,0.1269,0.1299,0.1306,0.1219,0.1219,0.1219,0,0.0774,0.08,0.0825,0.0851,0.0875,0.091,0.0937,0.0966,0.102,0.1042,0.1055,0.1127,0.1146,0.1188,0.1206,0.1212,0.123,0.1216,0.1264,0.1268,0.1273,0.1302,0.131,0.122,0.122,0.122,0.122,0,0.0792,0.082,0.0836,0.0877,0.0905,0.0936,0.0975,0.1011,0.1046,0.1074,0.1132,0.1163,0.1205,0.1218,0.1227,0.127,0.1276,0.1264,0.125,0.1281,0.131,0.1317,0.1222,0.1222,0.1222,0.1221,0,0,0.0769,0.0834,0.0842,0.0867,0.0923,0.0946,0.0993,0.104,0.1075,0.1126,0.117,0.1219,0.1241,0.1258,0.1275,0.1298,0.1348,0.13,0.1301,0.1327,0.1413,0.1359,0.1362,0.1348,0.1349,0.135,0.1426,0,0.0778,0.0825,0.0857,0.0906,0.0933,0.0978,0.1017,0.1065,0.1111,0.1162,0.1198,0.1248,0.1254,0.1285,0.1309,0.134,0.1368,0.133,0.1382,0.1384,0.1329,0.1368,0.1354,0.1431,0.1433,0.1434,0.1435,0,0.0782,0.0815,0.0862,0.0923,0.094,0.0975,0.1043,0.1083,0.1153,0.1193,0.1246,0.1277,0.1333,0.1324,0.1397,0.1377,0.1401,0.1417,0.142,0.1363,0.1342,0.1392,0.1448,0.1447,0.1446,0.1445,0.1444,0,0.0751,0.0817,0.0854,0.0875,0.0948,0.0982,0.1025,0.1096,0.1138,0.1218,0.126,0.132,0.1371,0.1401,0.1453,0.1431,0.1526,0.1493,0.1466,0.1463,0.1477,0.1471,0.1536,0.1536,0.1536,0.1535,0.1535,0,0.0739,0.0771,0.0846,0.0866,0.0912,0.0971,0.1028,0.1083,0.1163,0.1212,0.1276,0.1326,0.1394,0.1455,0.1474,0.1506,0.1548,0.1479,0.1479,0.1488,0.1483,0.1483,0.1476,0.1538,0.1538,0.1537,0.1537,0,0.0699,0.075,0.0793,0.0872,0.09,0.0934,0.1027,0.1064,0.1153,0.1221,0.1252,0.1356,0.144,0.1502,0.1572,0.154,0.1567,0.1567,0.16,0.1599,0.1481,0.1475,0.1527,0.1525,0.1524,0.1523,0.1523,0,0.0682,0.0702,0.0783,0.081,0.085,0.0911,0.0951,0.1049,0.109,0.1229,0.1252,0.1374,0.1434,0.1499,0.156,0.1607,0.1591,0.1588,0.1503,0.1486,0.1481,0.1476,0.1471,0.1521,0.1521,0.152,0.152,0,0.0642,0.0677,0.0709,0.0765,0.0813,0.0857,0.0924,0.0952,0.1065,0.1153,0.1239,0.1301,0.1402,0.1466,0.1532,0.155,0.1573,0.1576,0.1576,0.1496,0.148,0.1474,0.1471,0.1516,0.1517,0.1517,0.1517,0,0.0608,0.0617,0.0666,0.0709,0.0763,0.0795,0.0838,0.0903,0.0964,0.1117,0.1146,0.1283,0.1391,0.144,0.149,0.1521,0.1486,0.142,0.1428,0.1433,0.1368,0.1331,0.133,0,0,0,0,0,0.0575,0.0582,0.0609,0.0653,0.0704,0.0743,0.0816,0.0862,0.097,0.1009,0.1081,0.1172,0.1273,0.134,0.1355,0.1441,0.1483,0.145,0.1407,0.1495,0.1499,0.1432,0,0,0,0,0,0,0.0552,0.0577,0.0584,0.0598,0.0624,0.0675,0.0723,0.0797,0.0824,0.0944,0.1009,0.1103,0.1218,0.1264,0.1336,0.1357,0.1306,0.1537,0.1534,0.1493,0.1497,0.15,0.1432,0,0,0,0,0]},{"header":{"parameterUnit":"m.s-1","parameterCategory":2,"la1":30.2991,"la2":30.254,"lo1":-89.0895,"lo2":-89.0444,"dy":0.0017,"dx":0.0017,"nx":28,"ny":28,"refTime":"2025-08-12T21:00:00:Z","depth":"4","parameterNumber":3,"parameterNumberName":"V-component_of_CURRENTS"},"data":[0,0,0,0,0,0,0,0,0,0,0,0,0,0,0,0,0,0,0,0,0,0,0,0,0,0,0,0,0,0,0,0,0,0,0,0,0,0,0,0,0,0,0,0,0,0,0,0,0,0,0,0,0,0,0,0,0,0,0.0134,0.0134,0,0.0087,0.0086,0.0085,0.0043,0.0043,0.0042,0.0042,-0.0034,-0.0035,-0.0037,0,0,0,0,0,0,0,0,0,0,0,0,0,0.0139,0.0139,0.0134,0.0134,0.0133,0.0087,0.0086,0.0085,0.0043,0.0043,0.0042,0.0042,-0.0033,-0.0035,-0.0037,0,0,0,0,0,0,0,0,0,0,0,0,0,0.0118,0.0139,0.0135,0.0108,0.0105,0.0087,0.0086,0.0085,0.0043,0.0043,0.0042,0.0042,-0.0032,-0.0035,-0.0037,-0.0041,0,0,-0.0045,-0.0046,0,0,0,0,0,0,0,0,0.0119,0.0117,0.0112,0.011,0.0106,0.0071,0.006,0.0042,0.0044,0.0066,0.0042,0.0041,-0.0,-0.0005,-0.0014,-0.0044,-0.0048,-0.0045,-0.0047,-0.0048,-0.0048,0,0,0,0,0,0,0,0.0121,0.0119,0.0114,0.0112,0.0108,0.0081,0.0077,0.0056,0.0035,0.0064,0.0061,0.0057,-0.0002,-0.0012,-0.0016,-0.0049,-0.0045,-0.0047,-0.0049,-0.005,-0.01,-0.01,0,0,0,0,0,0,0.0132,0.0121,0.0116,0.0113,0.0113,0.0081,0.0078,0.0082,0.0036,0.0029,0.0058,0.0056,-0.0007,-0.0013,-0.0019,-0.0033,-0.0048,-0.005,-0.0051,-0.01,-0.01,-0.01,0,0,0,0,0,0,0.0133,0.0132,0.0118,0.0116,0.0112,0.0082,0.0088,0.0082,0.0069,0.0032,0.0024,0.0051,-0.0008,-0.0016,-0.0039,-0.0036,-0.0051,-0.0053,-0.01,-0.01,-0.01,-0.0056,0,0,0,0,0,0,0.0133,0.0133,0.0139,0.0117,0.0113,0.0107,0.0088,0.0081,0.0068,0.0065,0.0024,0.0016,-0.0009,-0.0035,-0.0042,-0.004,-0.0055,-0.0101,-0.01,-0.01,-0.0058,-0.0055,-0.0052,0,0,0,0,0,0.0133,0.0145,0.0139,0.0139,0.0123,0.0108,0.0103,0.0078,0.0069,0.0064,0.0038,0.0017,-0.0038,-0.0037,-0.0045,-0.0043,-0.0101,-0.01,-0.01,-0.0059,-0.0055,-0.0052,0,0,0,0,0,0,0.0148,0.0141,0.0135,0.0143,0.0127,0.0101,0.0096,0.0082,0.0058,0.0053,0.0019,0.0009,-0.0011,-0.0032,-0.003,-0.0057,-0.0072,-0.0074,-0.0039,-0.0035,-0.0032,-0.0017,-0.0057,0,0,0,0,0,0.0156,0.0164,0.0147,0.0153,0.0147,0.0123,0.0114,0.0098,0.0076,0.0064,0.0037,0.0009,-0.0014,-0.0028,-0.0053,-0.0066,-0.0085,-0.007,-0.0067,-0.0065,-0.0057,-0.0079,-0.0077,-0.0099,-0.0099,-0.0099,0,0,0.0164,0.0161,0.0164,0.0157,0.0142,0.0137,0.0115,0.0105,0.01,0.0061,0.0045,0.0018,-0.0015,-0.0032,-0.0043,-0.005,-0.007,-0.0064,-0.0061,-0.0056,-0.0078,-0.0076,-0.0074,-0.0098,-0.0099,-0.0099,0,0,0.0176,0.0179,0.0184,0.0176,0.016,0.0148,0.0147,0.0122,0.0111,0.0094,0.0066,0.0045,0.0006,-0.0012,-0.0027,-0.0021,-0.0053,-0.0033,-0.0005,-0.0026,-0.0024,-0.0023,-0.0048,-0.0049,-0.0031,-0.003,-0.003,0,0.0182,0.0192,0.0182,0.0181,0.018,0.0156,0.0158,0.0145,0.0115,0.0113,0.0093,0.0049,0.0018,0.0006,0.0005,-0.0013,-0.0033,-0.0016,-0.0021,-0.002,-0.0019,-0.0046,-0.0047,-0.0028,-0.0029,-0.0029,-0.0029,0,0.0193,0.0201,0.0204,0.02,0.0197,0.0196,0.0181,0.0174,0.0159,0.0145,0.0129,0.0089,0.0065,0.005,0.0026,0.0019,-0.0001,-0.0014,-0.0028,-0.0014,-0.0043,-0.0046,-0.0025,-0.0026,-0.0027,-0.0027,0,0,0.0203,0.0211,0.0211,0.0221,0.021,0.0212,0.0211,0.0208,0.0216,0.0182,0.0187,0.0143,0.0124,0.0107,0.0076,0.0055,0.0036,0.0024,0.0022,0.0004,-0.0015,-0.0033,-0.0038,0.002,0.0019,0.0019,-0.0038,0,0.0212,0.0227,0.0227,0.0244,0.0253,0.0244,0.0251,0.0246,0.0235,0.0234,0.02,0.0187,0.0146,0.0134,0.0109,0.0054,0.0032,0.0053,-0.003,-0.0032,-0.0045,-0.0041,0.0019,-0.0041,-0.0041,-0.0042,-0.0042,0,0.0217,0.0232,0.0252,0.0281,0.0284,0.0292,0.0311,0.0313,0.0307,0.0297,0.0279,0.0249,0.0215,0.018,0.0099,0.0112,0.0054,0.0011,0.0007,-0.0024,-0.0055,-0.0057,-0.0047,-0.0047,-0.0047,-0.0046,-0.0046,0,0.0229,0.0251,0.0275,0.0281,0.0303,0.0317,0.033,0.0333,0.0348,0.0338,0.0341,0.0296,0.027,0.02,0.01,0.0099,0.0009,-0.0004,-0.0073,-0.0076,-0.0061,-0.0062,-0.0056,-0.0056,-0.0056,-0.0055,-0.0055,0,0.0239,0.0258,0.0286,0.0298,0.0338,0.0344,0.0383,0.0384,0.0399,0.0418,0.0376,0.037,0.0273,0.0208,0.012,0.0011,0.002,-0.0066,-0.0089,-0.0043,-0.0041,-0.0064,-0.0064,-0.0058,-0.0057,-0.0057,-0.0056,0,0.0242,0.0257,0.0291,0.0327,0.0344,0.0371,0.0422,0.045,0.0451,0.0474,0.0471,0.0422,0.033,0.0227,0.0106,0.0034,-0.0065,-0.0106,-0.0051,-0.0071,-0.014,-0.0137,-0.0179,-0.018,-0.0181,-0.0182,-0.0183,0,0.0245,0.026,0.0312,0.034,0.0359,0.0405,0.0441,0.047,0.0498,0.05,0.051,0.0438,0.0386,0.0211,0.0093,-0.007,-0.0097,-0.0146,-0.0139,-0.0133,-0.0151,-0.0147,-0.0143,-0.0184,-0.0184,-0.0185,-0.0185,0,0.025,0.0267,0.0298,0.0355,0.04,0.0456,0.0505,0.0532,0.0558,0.0564,0.0538,0.0451,0.0347,0.0209,0.0078,-0.004,-0.011,-0.0156,-0.0155,-0.0149,-0.0139,-0.0156,-0.0151,-0.0188,-0.0188,-0.0187,-0.0187,0,0.0253,0.0276,0.0316,0.0366,0.0427,0.0482,0.0514,0.0547,0.0577,0.0578,0.0564,0.0458,0.0399,0.0223,0.0103,-0.0016,-0.0045,-0.0078,-0.0081,-0.0079,-0.0037,-0.001,-0.0035,0,0,0,0,0,0.0252,0.0277,0.0325,0.0383,0.0445,0.048,0.0546,0.0574,0.06,0.0588,0.058,0.0482,0.0308,0.0236,0.0115,0.0074,-0.0074,-0.0073,-0.0116,-0.0205,-0.0202,-0.0171,0,0,0,0,0,0,0.0252,0.0292,0.0318,0.0386,0.0427,0.0499,0.0542,0.0565,0.0561,0.0567,0.048,0.0444,0.0276,0.0371,0.0108,0.0072,0.0028,-0.0151,-0.0154,-0.0207,-0.0204,-0.0201,-0.0168,0,0,0,0,0]}]]